Location: Sternwarte_Laufen
(47.9344°N, 12.9346°E)
Time: 14:00:31
(UTC+01:00)

Tiangong 2 - Visible Passes

Search period start: 18 December 2017 00:00
Search period end: 28 December 2017 00:00
Orbit: 387 x 389 km, 42.8° (Epoch: 18 December)

Date Brightness Start Highest point End Pass type
(mag) Time Alt. Az. Time Alt. Az. Time Alt. Az.
22 Dec 3.8 18:28:34 10° S 18:29:08 12° S 18:29:08 12° S visible
23 Dec 4.2 19:05:21 10° SW 19:05:46 12° SW 19:05:46 12° SW visible
24 Dec 3.1 18:07:23 10° SSW 18:09:40 18° SSE 18:10:04 18° SSE visible
25 Dec 3.6 17:09:46 10° S 17:11:24 13° SSE 17:13:01 10° ESE visible
25 Dec 3.1 18:44:49 10° SW 18:46:36 23° SSW 18:46:36 23° SSW visible
26 Dec 2.8 17:46:37 10° SW 17:49:16 24° SSE 17:50:51 17° SE visible
26 Dec 4.5 19:22:46 10° WSW 19:23:08 12° WSW 19:23:08 12° WSW visible
27 Dec 2.4 18:24:23 10° WSW 18:27:15 32° S 18:27:22 31° S visible
